National Weather Service United States Department of Commerce


000
ASUS42 KCAE 192110
RWRCAE
REGIONAL WEATHER ROUNDUP
NATIONAL WEATHER SERVICE COLUMBIA SC
400 PM EST MON FEB 19 2018

NOTE: "FAIR" INDICATES FEW OR NO CLOUDS BELOW 12,000 FEET WITH NO
SIGNIFICANT WEATHER AND/OR OBSTRUCTIONS TO VISIBILITY.

NOT ALL STATIONS ARE QUALITY CONTROLLED BY THE NATIONAL
WEATHER SERVICE. USE DATA WITH CAUTION...ESPECIALLY
DEWPOINT OBSERVATIONS.

SCZ001>056-GAZ040-063>065-077-192200-
...UPSTATE SOUTH CAROLINA...

CITY SKY/WX TMP DP RH WIND PRES REMARKS
ANDERSON CLOUDY 57 56 96 NE3 30.34S
LIBERTY CLOUDY 55 55 100 CALM 30.34S
SPARTANBURG CLOUDY 54 52 94 CALM 30.36S FOG
CLEMSON CLOUDY 56 53 90 NE3 30.35S
GREENVILLE CLOUDY 57 55 93 E3 30.36S
GREENWOOD CLOUDY 63 57 81 NE5 30.35S
GREER CLOUDY 54 54 100 CALM 30.36R FOG
ROCK HILL CLOUDY 58 53 84 N3 30.36S
CHESTER FAIR 61 54 77 NE5 30.36S
LAURENS CLOUDY 59 55 88 CALM 30.35S


...CENTRAL SOUTH CAROLINA...

CITY SKY/WX TMP DP RH WIND PRES REMARKS
COLUMBIA APT PTSUNNY 74 60 61 CALM 30.31F
COLUMBIA OWENS FAIR 73 56 54 VRB3 30.33F
MCENTIRE ANGB FAIR 71 58 64 E9 30.33S
ORANGEBURG FAIR 73 60 63 SE6 30.32F
SUMTER SHAW PTSUNNY 71 57 61 E3 30.32F
NEWBERRY MOCLDY 68 57 68 CALM 30.36S
AIKEN FAIR 72 59 64 S3 30.34F
BARNWELL N/A 77 64 65 E7 30.30F
MANNING FAIR 72 43 35 MISG 30.34F
CAMDEN FAIR 70 59 68 CALM 30.34S
LANCASTER FAIR 68 57 68 NE3 30.34F
WINNSBORO FAIR 70 57 64 S6 30.33S


...EASTERN AND COASTAL SOUTH CAROLINA...

CITY SKY/WX TMP DP RH WIND PRES REMARKS
MYRTLE BEACH CLOUDY 63 63 100 SE3 30.37S
N MYRTLE BCH CLOUDY 64 62 93 E3 30.36S
CONWAY CLOUDY 64 64 100 CALM 30.36F FOG
MARION CLOUDY 61 54 77 CALM 30.37S HAZE
HARTSVILLE FAIR 61 54 77 CALM 30.35F
FLORENCE PTSUNNY 64 56 75 CALM 30.36F
DARLINGTON FAIR 62 55 77 N3 30.37S
CHARLESTON APT FAIR 78 64 61 S10 30.32F
MOUNT PLEASANT FAIR 75 66 73 SE5 30.34S
WALTERBORO MOCLDY 77 61 57 S10 30.32F
BEAUFORT FAIR 77 68 73 SE7 30.32


...EASTERN GEORGIA...

CITY SKY/WX TMP DP RH WIND PRES REMARKS
AUGUSTA BUSH F FAIR 76 61 59 E6 30.28F
AUGUSTA DANIEL FAIR 74 60 61 SE6 30.30F
THOMSON FAIR 71 60 68 E3 30.34F
WASHINGTON PTSUNNY 66 59 77 E3 30.31
CLAXTON FAIR 80 62 55 SE5 30.29F
SYLVANIA FAIR 80 63 56 S8 30.31S
STATESBORO FAIR 81 55 40 S14 30.30S
SAVANNAH PTSUNNY 80 64 58 SE12 30.31F


...SOUTHERN NORTH CAROLINA...

CITY SKY/WX TMP DP RH WIND PRES REMARKS
CHARLOTTE CLOUDY 57 54 89 CALM 30.36F
MONROE CLOUDY 56 53 90 VRB3 30.36S
WADESBORO CLOUDY 54 50 87 CALM 30.37S
ROCKINGHAM CLOUDY 54 53 98 CALM 30.37F FOG
RUTHERFORDTON CLOUDY 52 52 100 CALM 30.37S
ASHEVILLE PTSUNNY 58 53 84 SE7 30.33S

$$